Time,TemperatureF,DewpointF,PressureIn,WindDirection,WindDirectionDegrees,WindSpeedMPH,WindSpeedGustMPH,Humidity,HourlyPrecipIn,Conditions,Clouds,dailyrainin,SoftwareType,DateUTC
2013-05-20 00:10:00,63.5,59.2,29.58,SSE,158,1.0,9.0,86,0.00,,---,0.00,VWS V14.01,2013-05-20 05:10:00,
2013-05-20 00:25:00,63.0,59.1,29.57,SSE,161,4.0,6.0,87,0.00,,---,0.00,VWS V14.01,2013-05-20 05:25:00,
2013-05-20 00:40:00,62.7,59.1,29.58,SSE,161,7.0,10.0,88,0.00,,---,0.00,VWS V14.01,2013-05-20 05:40:00,
2013-05-20 00:55:00,63.2,59.3,29.60,SSE,166,8.0,13.0,87,0.00,,---,0.00,VWS V14.01,2013-05-20 05:55:00,
2013-05-20 01:10:00,63.9,59.6,29.60,SE,144,10.0,13.0,86,0.00,,---,0.00,VWS V14.01,2013-05-20 06:10:00,
2013-05-20 01:25:00,64.4,59.8,29.58,South,180,3.0,14.0,85,0.00,,---,0.00,VWS V14.01,2013-05-20 06:25:00,
2013-05-20 01:40:00,64.4,60.1,29.55,ESE,111,0.0,9.0,86,0.00,,---,0.00,VWS V14.01,2013-05-20 06:40:00,
2013-05-20 01:55:00,64.2,60.6,29.56,SE,144,0.0,11.0,88,0.00,,---,0.00,VWS V14.01,2013-05-20 06:55:00,
2013-05-20 02:10:00,63.8,60.8,29.55,SE,144,1.0,10.0,90,0.00,,---,0.00,VWS V14.01,2013-05-20 07:10:00,
2013-05-20 02:25:00,63.2,60.5,29.56,SE,144,1.0,5.0,91,0.00,,---,0.00,VWS V14.01,2013-05-20 07:25:00,
2013-05-20 02:40:00,62.7,60.3,29.56,SE,144,4.0,6.0,92,0.00,,---,0.00,VWS V14.01,2013-05-20 07:40:00,
2013-05-20 02:55:00,62.3,60.0,29.58,SSE,161,4.0,7.0,92,0.00,,---,0.00,VWS V14.01,2013-05-20 07:55:00,
2013-05-20 03:10:00,62.3,59.6,29.58,SSE,164,8.0,13.0,91,0.00,,---,0.00,VWS V14.01,2013-05-20 08:10:00,
2013-05-20 03:25:00,62.6,59.6,29.58,SSE,163,7.0,11.0,90,0.00,,---,0.00,VWS V14.01,2013-05-20 08:25:00,
2013-05-20 03:40:00,62.6,59.6,29.58,SSE,147,8.0,11.0,90,0.00,,---,0.00,VWS V14.01,2013-05-20 08:40:00,
2013-05-20 03:55:00,62.7,59.4,29.58,SE,145,5.0,13.0,89,0.00,,---,0.00,VWS V14.01,2013-05-20 08:55:00,
2013-05-20 04:10:00,62.8,59.2,29.59,SSE,157,5.0,15.0,88,0.00,,---,0.00,VWS V14.01,2013-05-20 09:10:00,
2013-05-20 04:25:00,62.9,59.3,29.59,SSE,157,8.0,15.0,88,0.00,,---,0.00,VWS V14.01,2013-05-20 09:25:00,
2013-05-20 04:40:00,63.1,59.5,29.60,SSE,153,8.0,16.0,88,0.00,,---,0.00,VWS V14.01,2013-05-20 09:40:00,
2013-05-20 04:55:00,63.2,59.6,29.60,SSE,164,12.0,18.0,88,0.00,,---,0.00,VWS V14.01,2013-05-20 09:55:00,
2013-05-20 05:10:00,63.3,59.7,29.61,SSE,157,6.0,19.0,88,0.00,,---,0.00,VWS V14.01,2013-05-20 10:10:00,
2013-05-20 05:25:00,63.4,59.5,29.61,SSE,165,9.0,18.0,87,0.00,,---,0.00,VWS V14.01,2013-05-20 10:25:00,
2013-05-20 05:40:00,63.5,59.2,29.60,SSE,157,9.0,18.0,86,0.00,,---,0.00,VWS V14.01,2013-05-20 10:40:00,
2013-05-20 05:55:00,63.1,58.8,29.61,South,186,9.0,16.0,86,0.00,,---,0.00,VWS V14.01,2013-05-20 10:55:00,
2013-05-20 06:10:00,63.0,59.1,29.60,SSW,202,2.0,15.0,87,0.00,,---,0.00,VWS V14.01,2013-05-20 11:10:00,
2013-05-20 06:25:00,62.7,59.1,29.61,South,178,4.0,11.0,88,0.00,,---,0.00,VWS V14.01,2013-05-20 11:25:00,
2013-05-20 06:40:00,62.3,59.0,29.62,South,172,5.0,12.0,89,0.00,,---,0.00,VWS V14.01,2013-05-20 11:40:00,
2013-05-20 06:55:00,62.1,59.1,29.62,South,180,6.0,11.0,90,0.00,,---,0.00,VWS V14.01,2013-05-20 11:55:00,
2013-05-20 07:10:00,62.3,59.6,29.63,South,186,6.0,14.0,91,0.00,,---,0.00,VWS V14.01,2013-05-20 12:10:00,
2013-05-20 07:25:00,63.0,60.3,29.63,SSW,196,3.0,16.0,91,0.00,,---,0.00,VWS V14.01,2013-05-20 12:25:00,
2013-05-20 07:40:00,63.6,60.9,29.64,SSW,192,7.0,16.0,91,0.00,,---,0.00,VWS V14.01,2013-05-20 12:40:00,
2013-05-20 07:55:00,64.1,61.1,29.65,SSE,164,12.0,18.0,90,0.00,,---,0.00,VWS V14.01,2013-05-20 12:55:00,
2013-05-20 08:10:00,64.7,61.4,29.64,South,182,9.0,19.0,89,0.00,,---,0.00,VWS V14.01,2013-05-20 13:10:00,
2013-05-20 08:25:00,65.5,61.9,29.64,SSW,205,5.0,15.0,88,0.00,,---,0.00,VWS V14.01,2013-05-20 13:25:00,
2013-05-20 08:40:00,66.2,62.2,29.64,South,181,12.0,14.0,87,0.00,,---,0.00,VWS V14.01,2013-05-20 13:40:00,
2013-05-20 08:55:00,66.7,62.0,29.64,SSW,195,7.0,12.0,85,0.00,,---,0.00,VWS V14.01,2013-05-20 13:55:00,
2013-05-20 09:10:00,67.0,62.0,29.65,SSW,211,5.0,15.0,84,0.00,,---,0.00,VWS V14.01,2013-05-20 14:10:00,
2013-05-20 09:25:00,67.1,62.5,29.65,South,180,6.0,12.0,85,0.00,,---,0.00,VWS V14.01,2013-05-20 14:25:00,
2013-05-20 09:40:00,66.7,62.0,29.66,SSE,164,5.0,10.0,85,0.00,,---,0.00,VWS V14.01,2013-05-20 14:40:00,
2013-05-20 09:55:00,66.5,61.9,29.66,South,176,6.0,10.0,85,0.00,,---,0.00,VWS V14.01,2013-05-20 14:55:00,
2013-05-20 10:10:00,66.5,62.2,29.65,South,175,6.0,9.0,86,0.00,,---,0.00,VWS V14.01,2013-05-20 15:10:00,
2013-05-20 10:25:00,66.8,62.5,29.65,SSW,211,6.0,10.0,86,0.00,,---,0.00,VWS V14.01,2013-05-20 15:25:00,
2013-05-20 10:40:00,68.0,63.0,29.66,South,187,7.0,11.0,84,0.00,,---,0.00,VWS V14.01,2013-05-20 15:40:00,
2013-05-20 10:55:00,69.2,64.2,29.66,SSW,212,7.0,12.0,84,0.00,,---,0.00,VWS V14.01,2013-05-20 15:55:00,
2013-05-20 11:10:00,70.6,64.8,29.66,South,190,8.0,13.0,82,0.00,,---,0.00,VWS V14.01,2013-05-20 16:10:00,
2013-05-20 11:25:00,70.8,64.0,29.66,South,188,4.0,11.0,79,0.00,,---,0.00,VWS V14.01,2013-05-20 16:25:00,
2013-05-20 11:40:00,71.5,64.3,29.67,South,190,6.0,14.0,78,0.00,,---,0.00,VWS V14.01,2013-05-20 16:40:00,
2013-05-20 11:55:00,72.4,64.0,29.67,South,191,7.0,13.0,75,0.00,,---,0.00,VWS V14.01,2013-05-20 16:55:00,
2013-05-20 12:10:00,72.5,62.6,29.66,SSW,199,12.0,16.0,71,0.00,,---,0.00,VWS V14.01,2013-05-20 17:10:00,
2013-05-20 12:25:00,73.3,63.7,29.67,SSE,155,9.0,17.0,72,0.00,,---,0.00,VWS V14.01,2013-05-20 17:25:00,
2013-05-20 12:40:00,74.1,64.1,29.66,SSE,166,5.0,16.0,71,0.00,,---,0.00,VWS V14.01,2013-05-20 17:40:00,
2013-05-20 12:55:00,74.9,64.9,29.66,South,180,9.0,16.0,71,0.00,,---,0.00,VWS V14.01,2013-05-20 17:55:00,
2013-05-20 13:10:00,75.1,64.2,29.66,SSW,203,5.0,17.0,69,0.00,,---,0.00,VWS V14.01,2013-05-20 18:10:00,
2013-05-20 13:25:00,74.7,65.5,29.65,SSW,200,7.0,15.0,73,0.00,,---,0.00,VWS V14.01,2013-05-20 18:25:00,
2013-05-20 13:40:00,75.5,65.8,29.65,South,186,5.0,20.0,72,0.00,,---,0.00,VWS V14.01,2013-05-20 18:40:00,
2013-05-20 13:55:00,76.1,66.4,29.65,SSW,195,10.0,22.0,72,0.00,,---,0.00,VWS V14.01,2013-05-20 18:55:00,
2013-05-20 14:10:00,75.8,66.1,29.65,SE,140,7.0,22.0,72,0.00,,---,0.00,VWS V14.01,2013-05-20 19:10:00,
2013-05-20 14:25:00,75.5,66.2,29.65,SSE,167,8.0,23.0,73,0.00,,---,0.00,VWS V14.01,2013-05-20 19:25:00,
2013-05-20 14:40:00,75.3,66.1,29.64,SSW,200,14.0,20.0,73,0.00,,---,0.00,VWS V14.01,2013-05-20 19:40:00,
2013-05-20 14:55:00,75.7,66.8,29.63,South,175,10.0,19.0,74,0.00,,---,0.00,VWS V14.01,2013-05-20 19:55:00,
2013-05-20 15:10:00,76.0,67.5,29.62,South,189,5.0,17.0,75,0.00,,---,0.00,VWS V14.01,2013-05-20 20:10:00,
2013-05-20 15:25:00,76.4,67.5,29.61,SSE,147,4.0,18.0,74,0.00,,---,0.00,VWS V14.01,2013-05-20 20:25:00,
2013-05-20 15:40:00,76.5,66.8,29.60,SE,136,13.0,19.0,72,0.00,,---,0.00,VWS V14.01,2013-05-20 20:40:00,
2013-05-20 15:55:00,76.8,67.5,29.59,SSE,156,7.0,18.0,73,0.00,,---,0.00,VWS V14.01,2013-05-20 20:55:00,
2013-05-20 16:10:00,77.7,68.0,29.59,South,169,10.0,13.0,72,0.00,,---,0.00,VWS V14.01,2013-05-20 21:10:00,
2013-05-20 16:25:00,78.1,67.9,29.58,SSE,165,7.0,15.0,71,0.00,,---,0.00,VWS V14.01,2013-05-20 21:25:00,
2013-05-20 16:40:00,77.0,68.1,29.58,SSE,157,2.0,15.0,74,0.00,,---,0.00,VWS V14.01,2013-05-20 21:40:00,
2013-05-20 16:55:00,77.2,68.7,29.59,SSE,163,7.0,15.0,75,0.00,,---,0.00,VWS V14.01,2013-05-20 21:55:00,
2013-05-20 17:10:00,77.8,68.5,29.58,SSE,165,7.0,14.0,73,0.00,,---,0.00,VWS V14.01,2013-05-20 22:10:00,
2013-05-20 17:25:00,78.2,68.8,29.57,SE,136,5.0,12.0,73,0.00,,---,0.00,VWS V14.01,2013-05-20 22:25:00,
2013-05-20 17:40:00,78.4,68.6,29.56,SSE,157,6.0,13.0,72,0.00,,---,0.00,VWS V14.01,2013-05-20 22:40:00,
2013-05-20 17:55:00,77.8,68.1,29.57,SSE,163,5.0,12.0,72,0.00,,---,0.00,VWS V14.01,2013-05-20 22:55:00,
2013-05-20 18:10:00,77.8,68.1,29.56,SSE,162,8.0,11.0,72,0.00,,---,0.00,VWS V14.01,2013-05-20 23:10:00,
2013-05-20 18:25:00,78.3,68.5,29.54,SE,146,1.0,12.0,72,0.00,,---,0.00,VWS V14.01,2013-05-20 23:25:00,
2013-05-20 18:40:00,78.0,68.2,29.54,SSE,148,5.0,12.0,72,0.00,,---,0.00,VWS V14.01,2013-05-20 23:40:00,
2013-05-20 18:55:00,77.5,68.6,29.53,SSE,149,9.0,10.0,74,0.00,,---,0.00,VWS V14.01,2013-05-20 23:55:00,
2013-05-20 19:10:00,76.7,68.2,29.53,SE,141,4.0,13.0,75,0.00,,---,0.00,VWS V14.01,2013-05-21 00:10:00,
2013-05-20 19:25:00,76.1,68.0,29.54,SSE,167,7.0,12.0,76,0.00,,---,0.00,VWS V14.01,2013-05-21 00:25:00,
2013-05-20 19:40:00,75.8,68.1,29.54,South,176,8.0,11.0,77,0.00,,---,0.00,VWS V14.01,2013-05-21 00:40:00,
2013-05-20 19:55:00,75.7,68.4,29.55,SSE,166,9.0,11.0,78,0.00,,---,0.00,VWS V14.01,2013-05-21 00:55:00,
2013-05-20 20:10:00,75.1,68.5,29.55,SSE,161,2.0,9.0,80,0.00,,---,0.00,VWS V14.01,2013-05-21 01:10:00,
2013-05-20 20:25:00,73.5,68.0,29.55,SSE,161,5.0,14.0,83,0.00,,---,0.00,VWS V14.01,2013-05-21 01:25:00,
2013-05-20 20:40:00,72.4,68.0,29.55,SSE,154,4.0,10.0,86,0.00,,---,0.00,VWS V14.01,2013-05-21 01:40:00,
2013-05-20 20:55:00,71.8,67.4,29.55,South,174,6.0,9.0,86,0.00,,---,0.00,VWS V14.01,2013-05-21 01:55:00,
2013-05-20 21:10:00,72.0,66.6,29.55,South,190,3.0,12.0,83,0.00,,---,0.00,VWS V14.01,2013-05-21 02:10:00,
2013-05-20 21:25:00,71.5,66.4,29.56,SSW,200,3.0,9.0,84,0.00,,---,0.00,VWS V14.01,2013-05-21 02:25:00,
2013-05-20 21:40:00,70.8,65.4,29.56,SW,215,3.0,7.0,83,0.00,,---,0.00,VWS V14.01,2013-05-21 02:40:00,
2013-05-20 21:55:00,70.6,61.5,29.57,SW,221,3.0,7.0,73,0.00,,---,0.00,VWS V14.01,2013-05-21 02:55:00,
2013-05-20 22:10:00,70.1,60.3,29.57,SW,218,3.0,6.0,71,0.00,,---,0.00,VWS V14.01,2013-05-21 03:10:00,
2013-05-20 22:25:00,69.6,59.0,29.58,SSW,196,1.0,7.0,69,0.00,,---,0.00,VWS V14.01,2013-05-21 03:25:00,
2013-05-20 22:40:00,68.9,58.3,29.59,SSW,196,4.0,6.0,69,0.00,,---,0.00,VWS V14.01,2013-05-21 03:40:00,
2013-05-20 22:55:00,68.3,57.8,29.60,SSW,192,6.0,8.0,69,0.00,,---,0.00,VWS V14.01,2013-05-21 03:55:00,
2013-05-20 23:10:00,67.9,57.4,29.60,SSW,201,4.0,9.0,69,0.00,,---,0.00,VWS V14.01,2013-05-21 04:10:00,
2013-05-20 23:25:00,67.7,57.2,29.60,SSW,211,6.0,9.0,69,0.00,,---,0.00,VWS V14.01,2013-05-21 04:25:00,
2013-05-20 23:40:00,66.9,56.4,29.59,SSW,198,7.0,8.0,69,0.00,,---,0.00,VWS V14.01,2013-05-21 04:40:00,
2013-05-20 23:55:00,66.6,56.1,29.59,South,178,2.0,8.0,69,0.00,,---,0.00,VWS V14.01,2013-05-21 04:55:00,